Location: Lane
(33.5226°N, 79.8788°W)
Time: 05:53:50
(UTC+00:00)

Vanguard 2 - Pass Details

Date: 05 October 2022
Orbit: 553 x 2933 km, 32.9° (Epoch: 26 November)

Event Time Altitude Azimuth Distance (km) Brightness Sun altitude
Rises 15:17:45 0° 208° (SSW) 3,635 11.2 43.6°
Reaches altitude 10° 15:20:19 10° 197° (SSW) 2,953 11.0 43.9°
Maximum altitude 15:26:39 30° 138° (SE) 2,418 12.0 44.7°
Drops below altitude 10° 15:36:09 10° 84° (E) 4,532 11.9 45.9°
Sets 15:41:11 0° 76° (ENE) 5,939 12.2 46.4°
